Temp
-5 -5 -5 -6 -6 -6 -7 -7 -7 -7 -7 -7 -7 -8 -8 -7 -8 -8 -8 -8 -8 -8 -8 -8 -8 -8 -8 -8 -8 -8 -7 -7 -7 -7 -7 -7 -7 -8 -8 -9 -9 -9 -9
-5 -5 -5 -6 -6 -6 -7 -7 -7 -7 -7 -8 -8 -8 -7 -8 -8 -8 -9 -8 -8 -8 -8 -8 -8 -8 -8 -8 -7 -7 -7 -7 -7 -8 -8 -7 -7 -8 -8 -8 -9 -9 -9
-5 -6 -6 -6 -6 -6 -7 -7 -7 -7 -8 -8 -8 -7 -8 -8 -8 -8 -8 -8 -8 -8 -8 -8 -8 -8 -8 -8 -8 -8 -8 -8 -8 -8 -8 -8 -8 -8 -8 -8 -9 -9 -9
-5 -6 -6 -6 -7 -7 -7 -7 -7 -8 -8 -7 -7 -7 -8 -8 -8 -8 -8 -8 -8 -8 -8 -8 -8 -8 -8 -8 -8 -8 -8 -8 -8 -8 -8 -8 -8 -8 -8 -8 -9 -9 -8
-6 -6 -6 -7 -6 -7 -7 -7 -7 -7 -7 -7 -7 -8 -8 -8 -8 -8 -8 -8 -8 -8 -8 -8 -8 -8 -8 -8 -8 -8 -9 -9 -8 -8 -8 -8 -8 -8 -8 -9 -9 -8 -8
-6 -6 -6 -7 -7 -7 -7 -7 -7 -7 -7 -7 -8 -8 -8 -8 -8 -8 -8 -8 -8 -8 -8 -8 -8 -8 -8 -8 -8 -9 -9 -9 -9 -8 -8 -8 -8 -8 -8 -8 -9 -8 -8
-6 -6 -6 -7 -7 -7 -7 -7 -7 -7 -7 -7 -7 -8 -8 -8 -8 -8 -8 -8 -8 -8 -8 -8 -8 -8 -8 -8 -8 -8 -9 -9 -9 -9 -8 -8 -8 -8 -8 -8 -8 -8 -8
-6 -6 -7 -7 -7 -7 -7 -7 -8 -7 -7 -7 -7 -7 -7 -7 -7 -7 -7 -8 -8 -8 -8 -7 -7 -7 -7 -8 -8 -8 -8 -9 -9 -9 -8 -8 -8 -9 -9 -8 -8 -8 -8
-6 -6 -7 -7 -7 -7 -7 -7 -7 -7 -7 -7 -7 -7 -7 -7 -7 -7 -7 -7 -7 -7 -7 -7 -7 -7 -7 -7 -7 -7 -7 -7 -8 -9 -8 -8 -8 -9 -8 -8 -8 -8 -8
-6 -6 -7 -7 -7 -7 -7 -7 -7 -7 -7 -6 -6 -6 -6 -7 -7 -7 -7 -7 -7 -7 -7 -7 -7 -7 -7 -8 -7 -7 -7 -7 -8 -9 -8 -8 -8 -9 -9 -8 -8 -8 -8
-6 -6 -7 -7 -7 -7 -7 -7 -7 -6 -6 -6 -6 -6 -7 -7 -7 -7 -7 -7 -7 -7 -7 -8 -8 -8 -7 -8 -7 -7 -7 -8 -8 -9 -8 -8 -8 -9 -9 -9 -9 -8 -8
-6 -6 -7 -7 -7 -7 -7 -7 -6 -6 -6 -6 -6 -7 -7 -7 -7 -7 -7 -7 -7 -7 -7 -7 -8 -8 -8 -7 -7 -7 -7 -7 -8 -8 -8 -8 -8 -8 -9 -9 -9 -9 -9
-6 -6 -6 -7 -7 -7 -6 -6 -6 -6 -6 -6 -6 -6 -7 -7 -7 -7 -7 -7 -7 -7 -7 -7 -7 -7 -7 -7 -7 -7 -7 -7 -7 -8 -8 -8 -8 -9 -9 -9 -9 -9 -9
-6 -6 -6 -7 -6 -6 -6 -6 -6 -6 -6 -6 -6 -6 -7 -7 -7 -7 -7 -7 -7 -7 -7 -7 -7 -6 -7 -7 -7 -7 -7 -7 -7 -7 -7 -8 -8 -8 -8 -9 -9 -9 -9
-6 -6 -6 -6 -6 -6 -6 -6 -6 -6 -6 -6 -6 -6 -7 -7 -7 -7 -7 -7 -7 -7 -7 -7 -7 -7 -6 -6 -6 -6 -6 -6 -7 -7 -7 -7 -8 -8 -8 -9 -9 -9 -9
-6 -6 -6 -6 -6 -6 -6 -6 -6 -6 -6 -6 -6 -6 -7 -7 -7 -7 -7 -7 -7 -7 -6 -7 -7 -7 -6 -6 -6 -6 -6 -6 -6 -7 -7 -7 -7 -8 -8 -8 -9 -9 -9
-6 -6 -6 -6 -6 -6 -6 -6 -6 -6 -6 -6 -6 -7 -7 -7 -7 -7 -7 -7 -7 -7 -7 -7 -7 -6 -6 -6 -6 -6 -6 -6 -6 -7 -7 -7 -8 -8 -8 -8 -8 -9 -9
-6 -6 -6 -6 -6 -6 -6 -6 -6 -6 -6 -6 -6 -7 -7 -7 -7 -7 -7 -7 -7 -7 -7 -7 -7 -6 -6 -6 -6 -6 -7 -7 -7 -7 -7 -7 -7 -8 -8 -8 -8 -8 -8
-6 -6 -6 -6 -6 -6 -6 -6 -6 -6 -6 -7 -7 -7 -6 -7 -7 -7 -7 -7 -6 -6 -6 -6 -6 -6 -6 -6 -6 -6 -7 -7 -7 -7 -7 -7 -7 -8 -8 -8 -8 -8 -8
-6 -6 -6 -6 -6 -6 -6 -6 -6 -6 -6 -6 -7 -7 -6 -6 -7 -7 -7 -6 -6 -6 -7 -6 -6 -7 -6 -6 -7 -7 -7 -7 -7 -7 -7 -7 -8 -8 -8 -8 -8 -8 -8
-6 -6 -6 -6 -6 -6 -6 -6 -6 -6 -6 -6 -6 -7 -7 -6 -6 -6 -7 -6 -7 -6 -7 -7 -7 -7 -7 -6 -7 -7 -7 -7 -7 -8 -8 -8 -8 -8 -8 -8 -7 -7 -8
-6 -6 -6 -6 -6 -6 -6 -6 -6 -6 -6 -6 -6 -7 -6 -6 -6 -6 -7 -7 -6 -7 -7 -7 -7 -7 -7 -7 -7 -7 -7 -7 -7 -7 -8 -8 -8 -8 -8 -8 -8 -8 -8
-5 -6 -6 -6 -6 -6 -6 -6 -6 -6 -6 -6 -6 -6 -6 -6 -6 -6 -6 -6 -6 -6 -7 -7 -7 -7 -7 -7 -7 -7 -6 -6 -6 -6 -7 -8 -8 -8 -8 -8 -8 -8 -8
-6 -6 -6 -6 -6 -6 -6 -6 -6 -6 -6 -6 -6 -6 -6 -6 -6 -6 -6 -6 -6 -6 -7 -7 -7 -7 -7 -7 -7 -7 -7 -6 -6 -6 -7 -8 -8 -7 -8 -8 -8 -8 -8
-5 -5 -5 -5 -6 -6 -6 -6 -6 -6 -5 -6 -6 -6 -6 -6 -6 -6 -6 -6 -6 -6 -7 -7 -7 -7 -7 -7 -7 -7 -7 -7 -6 -6 -6 -7 -7 -7 -7 -7 -8 -8 -8
-4 -5 -5 -5 -5 -5 -6 -6 -6 -6 -5 -6 -6 -6 -6 -6 -6 -6 -6 -7 -6 -6 -6 -6 -7 -7 -7 -8 -7 -7 -7 -7 -7 -6 -6 -7 -7 -7 -7 -7 -7 -8 -8
Height
5892 5892 5894 5895 5897 5897 5897 5898 5899 5900 5900 5900 5901 5902 5902 5903 5903 5903 5903 5903 5902 5902 5903 5903 5904 5904 5904 5905 5905 5904 5903 5903 5902 5901 5901 5901 5902 5903 5905 5906 5908 5909 5911
5894 5895 5895 5897 5898 5899 5900 5899 5901 5902 5901 5902 5902 5903 5904 5904 5904 5904 5904 5904 5904 5904 5905 5905 5906 5905 5905 5906 5906 5905 5904 5904 5903 5903 5903 5903 5903 5905 5906 5907 5908 5910 5912
5896 5898 5899 5899 5900 5901 5902 5901 5903 5903 5902 5903 5904 5904 5905 5905 5905 5905 5906 5906 5906 5906 5907 5908 5907 5907 5908 5907 5906 5905 5905 5905 5905 5905 5904 5904 5905 5906 5908 5909 5910 5912 5913
5899 5900 5900 5901 5902 5903 5904 5904 5904 5904 5904 5905 5905 5906 5907 5907 5906 5907 5907 5907 5907 5908 5909 5909 5909 5909 5909 5908 5907 5907 5907 5907 5906 5907 5906 5906 5906 5908 5909 5910 5911 5912 5914
5899 5900 5901 5902 5904 5905 5905 5905 5906 5905 5905 5907 5907 5908 5909 5908 5908 5908 5908 5909 5909 5909 5910 5910 5910 5910 5909 5909 5908 5907 5907 5906 5907 5907 5907 5908 5907 5908 5909 5911 5912 5913 5914
5900 5901 5902 5903 5905 5906 5906 5906 5906 5906 5907 5908 5909 5910 5910 5910 5910 5910 5911 5911 5910 5910 5910 5910 5910 5911 5910 5910 5909 5908 5907 5906 5906 5907 5908 5909 5910 5910 5911 5911 5913 5914 5914
5901 5902 5903 5904 5906 5906 5906 5907 5907 5908 5909 5910 5911 5911 5912 5911 5912 5912 5912 5912 5912 5912 5912 5912 5912 5912 5912 5911 5910 5909 5907 5904 5906 5907 5908 5910 5911 5912 5912 5912 5913 5914 5915
5903 5903 5904 5906 5906 5907 5907 5908 5909 5910 5911 5912 5912 5912 5913 5913 5914 5914 5914 5914 5914 5915 5915 5915 5915 5914 5914 5912 5911 5910 5908 5906 5904 5907 5910 5911 5912 5912 5913 5913 5913 5914 5915
5904 5905 5905 5906 5907 5907 5908 5910 5911 5912 5914 5914 5914 5914 5915 5915 5916 5916 5917 5916 5917 5917 5918 5917 5917 5916 5915 5915 5914 5912 5910 5907 5906 5909 5912 5912 5913 5914 5914 5913 5914 5914 5915
5904 5906 5906 5907 5907 5909 5910 5912 5913 5915 5915 5915 5916 5917 5918 5919 5919 5919 5919 5920 5921 5921 5920 5919 5919 5918 5917 5916 5916 5914 5913 5911 5911 5913 5914 5915 5915 5915 5915 5915 5915 5915 5915
5905 5907 5908 5908 5909 5911 5912 5914 5916 5917 5918 5919 5920 5921 5922 5921 5922 5922 5923 5924 5924 5924 5923 5922 5921 5920 5919 5919 5918 5917 5916 5914 5914 5915 5916 5916 5916 5915 5915 5915 5915 5915 5916
5906 5908 5909 5910 5911 5913 5914 5916 5918 5919 5920 5922 5923 5924 5924 5925 5925 5925 5926 5926 5926 5926 5925 5925 5924 5923 5922 5921 5921 5919 5918 5918 5917 5917 5917 5917 5916 5916 5915 5914 5914 5915 5916
5907 5909 5909 5911 5913 5915 5917 5918 5920 5921 5923 5924 5925 5926 5927 5927 5927 5928 5928 5928 5928 5927 5926 5925 5925 5925 5924 5923 5922 5921 5921 5919 5918 5918 5917 5917 5917 5916 5916 5915 5915 5915 5915
5907 5909 5911 5913 5915 5917 5919 5920 5922 5923 5925 5926 5928 5929 5929 5929 5930 5931 5931 5931 5930 5929 5928 5927 5927 5926 5926 5925 5924 5923 5922 5921 5920 5920 5919 5918 5917 5917 5917 5916 5916 5915 5915
5907 5909 5912 5914 5916 5918 5921 5922 5924 5925 5927 5929 5930 5931 5931 5932 5933 5933 5934 5933 5932 5931 5930 5929 5928 5927 5927 5926 5926 5925 5923 5923 5922 5921 5920 5919 5919 5918 5918 5917 5917 5916 5916
5907 5909 5912 5914 5917 5919 5922 5923 5925 5927 5929 5931 5931 5932 5933 5933 5934 5934 5935 5934 5933 5932 5932 5931 5929 5929 5929 5928 5928 5927 5926 5925 5924 5922 5921 5920 5919 5919 5918 5918 5918 5917 5917
5906 5909 5911 5914 5917 5920 5922 5924 5926 5928 5930 5932 5933 5934 5934 5935 5935 5936 5936 5935 5934 5933 5932 5931 5931 5929 5929 5929 5928 5928 5927 5926 5925 5923 5922 5921 5920 5919 5918 5918 5917 5917 5916
5906 5908 5911 5914 5917 5920 5923 5925 5927 5929 5931 5933 5935 5935 5936 5936 5937 5937 5937 5936 5935 5933 5932 5932 5931 5929 5929 5929 5928 5928 5927 5926 5924 5923 5922 5922 5921 5919 5919 5918 5918 5917 5916
5904 5908 5911 5913 5917 5920 5923 5925 5927 5930 5932 5934 5935 5936 5937 5937 5937 5938 5938 5937 5936 5934 5933 5932 5931 5930 5930 5929 5928 5926 5925 5924 5923 5923 5922 5922 5921 5920 5919 5918 5918 5917 5917
5905 5906 5910 5913 5917 5921 5923 5926 5928 5930 5932 5934 5935 5936 5937 5937 5937 5937 5937 5936 5936 5935 5934 5933 5932 5930 5930 5929 5927 5926 5924 5923 5922 5922 5921 5921 5921 5920 5919 5919 5918 5918 5917
5905 5907 5910 5913 5917 5920 5923 5925 5927 5929 5931 5933 5935 5936 5936 5937 5937 5937 5936 5936 5936 5935 5934 5934 5932 5931 5930 5929 5928 5926 5925 5923 5920 5919 5920 5920 5921 5921 5920 5919 5918 5917 5916
5904 5906 5909 5912 5916 5919 5922 5925 5927 5929 5931 5932 5933 5935 5936 5936 5936 5936 5936 5935 5934 5934 5933 5933 5932 5931 5930 5928 5927 5926 5925 5923 5920 5918 5918 5919 5920 5919 5919 5918 5917 5917 5916
5904 5906 5908 5911 5914 5918 5921 5924 5927 5928 5929 5931 5932 5934 5935 5935 5935 5935 5934 5934 5934 5934 5933 5933 5932 5931 5930 5928 5927 5927 5924 5922 5920 5918 5917 5917 5917 5917 5916 5916 5915 5916 5915
5903 5905 5907 5909 5912 5916 5920 5923 5925 5926 5928 5931 5932 5933 5933 5933 5933 5933 5934 5933 5933 5933 5932 5932 5932 5931 5930 5928 5927 5926 5924 5922 5921 5919 5917 5917 5916 5915 5915 5914 5914 5914 5912
5902 5905 5908 5909 5910 5914 5917 5919 5922 5924 5926 5928 5930 5931 5932 5932 5932 5932 5932 5933 5933 5933 5932 5931 5931 5931 5930 5929 5928 5926 5925 5924 5922 5921 5919 5918 5917 5916 5914 5914 5913 5912 5911
5900 5904 5907 5909 5911 5914 5916 5917 5919 5922 5924 5926 5927 5928 5929 5930 5930 5931 5931 5931 5931 5931 5931 5931 5931 5931 5930 5929 5928 5927 5926 5924 5923 5921 5920 5919 5918 5917 5915 5914 5913 5911 5910
Wind_Speed
13 16 11 11 10 13 14 15 15 14 14 15 15 14 14 14 13 15 15 17 17 16 16 16 16 14 14 12 12 12 10 10 7 7 6 8 11 14 19 17 14 13 11
13 15 11 11 11 12 13 15 15 14 14 15 14 14 14 13 14 15 14 15 14 14 14 16 14 13 12 9 7 9 10 9 10 9 7 10 12 14 17 16 14 12 11
11 9 8 10 9 11 12 14 13 14 14 14 14 13 13 14 15 16 14 13 12 13 12 12 11 9 9 8 7 6 7 8 8 9 9 10 11 13 15 13 12 11 8
16 9 9 8 9 11 11 12 13 13 14 14 13 13 14 14 14 15 14 13 11 11 10 9 7 7 5 5 5 4 3 6 7 7 8 10 11 12 13 12 10 8 5
11 10 8 8 8 9 12 13 13 12 14 14 15 14 15 15 14 13 13 11 11 10 9 7 5 4 3 4 3 3 4 5 3 8 7 8 11 12 11 10 8 6 4
9 8 7 8 7 10 12 12 12 12 13 14 15 17 17 16 14 12 12 12 11 11 9 8 7 7 6 6 5 5 6 7 12 7 8 9 8 10 9 8 6 4 3
8 7 7 7 9 11 12 12 11 12 14 16 17 17 17 16 15 13 13 14 13 12 10 10 10 11 10 9 8 9 9 9 8 6 8 7 6 7 8 7 6 4 4
7 9 9 9 10 11 13 13 12 14 16 18 18 17 16 16 15 15 16 16 15 15 16 16 16 15 15 15 15 14 13 11 3 11 8 9 8 7 4 5 5 4 3
6 9 11 11 11 11 13 14 15 16 18 19 20 19 20 20 20 20 21 20 19 19 17 14 14 14 15 16 17 18 19 17 10 15 10 9 8 5 4 4 2 3 3
8 8 10 11 11 12 14 15 16 18 19 21 23 24 23 22 21 21 20 18 17 16 14 13 13 14 14 14 15 16 17 20 14 13 7 4 4 3 2 1 1 2 3
9 9 10 11 13 15 16 17 17 19 20 22 24 23 21 21 20 18 17 15 15 15 13 13 13 13 13 14 14 15 15 15 13 6 5 4 2 5 4 4 3 2 2
10 11 12 12 14 15 17 17 18 20 21 21 22 20 18 18 17 16 15 14 13 13 14 14 14 12 12 14 15 14 14 13 12 9 6 2 1 2 2 3 4 5 4
10 12 13 13 13 15 18 19 20 22 21 20 19 17 16 15 15 14 13 13 12 11 12 12 13 12 12 12 13 13 13 13 12 10 9 7 3 2 3 4 1 4 6
11 14 14 14 14 17 19 20 19 21 19 18 16 15 14 14 13 12 11 10 8 8 8 8 8 9 10 9 10 12 12 13 12 12 11 9 7 4 4 5 3 1 4
13 14 15 15 16 17 18 18 17 18 15 17 15 13 12 12 12 11 10 10 8 6 4 5 5 7 6 7 7 7 8 9 9 9 10 9 8 6 6 3 3 2 3
15 15 17 15 15 16 17 17 17 17 16 16 13 12 11 10 10 10 9 7 6 5 5 3 4 4 3 2 3 3 4 5 6 6 6 7 7 7 6 6 4 4 2
19 16 17 16 16 17 17 17 16 16 15 14 12 11 10 10 9 8 6 5 4 4 4 5 3 3 5 5 4 4 5 5 5 4 4 4 4 4 5 5 4 4 3
19 17 16 16 16 16 16 16 16 15 14 13 12 10 11 10 9 5 4 4 8 8 8 6 5 5 4 5 5 4 5 6 7 7 5 4 5 5 4 4 4 4 4
20 19 18 16 16 15 15 15 14 14 13 11 11 10 8 8 7 3 3 6 8 8 8 7 6 6 7 7 5 5 4 5 6 8 7 7 5 4 5 5 5 5 6
20 21 18 17 16 15 14 14 14 13 13 12 11 10 8 7 4 2 4 7 8 6 6 5 6 7 7 9 10 10 8 7 6 7 7 8 9 7 5 7 7 8 8
21 17 16 15 14 14 15 16 15 13 13 12 11 10 9 7 4 2 5 7 5 4 5 5 5 6 6 10 10 11 10 9 9 8 8 7 7 8 8 8 8 8 9
21 19 17 17 16 15 15 13 11 11 11 12 12 10 7 5 3 4 7 9 6 4 5 4 4 6 9 12 12 12 11 13 12 8 7 6 6 8 9 10 10 10 10
22 20 19 18 18 14 13 12 11 11 12 15 12 10 7 4 1 4 6 7 5 5 4 4 5 7 11 12 11 13 13 11 13 9 2 3 6 7 9 11 12 11 12
22 22 22 20 17 15 13 13 14 14 14 13 10 10 9 6 2 3 5 6 5 5 3 3 4 8 10 11 13 12 13 11 11 11 7 2 2 4 7 9 10 10 12
23 21 20 19 19 18 17 16 14 12 13 13 15 14 11 9 6 4 2 4 5 7 4 3 5 7 10 9 9 10 13 13 10 11 10 9 7 6 6 8 10 11 12
23 21 19 18 18 17 18 18 16 16 15 15 16 15 13 11 10 8 5 4 5 5 4 4 5 7 9 8 8 9 8 8 10 10 10 11 9 9 8 9 9 10 12
Wind_Direction
118 137 108 112 91 85 89 89 90 92 93 92 95 97 98 98 104 108 105 101 96 94 95 90 88 92 92 94 92 85 83 81 73 68 81 115 140 152 154 148 145 147 153
113 131 83 109 92 86 91 92 90 96 94 97 101 104 103 106 104 109 114 114 111 106 100 93 88 85 82 82 85 79 80 80 63 63 95 114 129 145 149 145 145 151 162
129 132 131 105 100 95 94 93 100 102 102 105 111 115 116 112 109 113 120 120 119 110 105 96 93 80 71 66 71 66 71 86 77 68 85 109 122 139 145 149 147 150 154
152 149 127 112 109 101 98 104 108 108 109 114 118 121 119 115 112 114 117 120 119 110 103 103 94 81 79 74 60 42 54 79 110 97 96 108 123 136 148 151 155 156 162
146 141 127 122 111 109 113 114 110 108 112 117 115 114 109 105 108 112 114 107 100 101 105 102 96 92 58 42 36 359 334 231 118 131 116 124 127 139 146 159 165 169 173
151 145 140 128 120 126 124 116 110 115 116 116 115 112 105 101 100 105 104 100 98 94 96 93 83 80 68 52 33 9 350 340 174 131 140 136 133 142 142 149 154 171 191
154 150 132 132 136 137 122 114 116 118 120 116 114 110 105 100 100 105 104 100 97 96 93 85 81 75 73 69 47 36 16 355 156 154 141 153 149 136 145 146 151 166 182
162 145 135 142 143 132 116 110 123 123 119 115 111 104 100 103 106 105 99 95 95 94 93 91 84 77 72 68 60 48 32 15 163 159 139 123 122 136 147 142 169 167 185
139 144 143 147 138 124 115 118 125 118 116 109 105 104 105 107 109 104 98 99 96 90 98 88 79 71 67 62 57 53 46 45 93 147 136 127 129 119 125 118 157 177 194
130 146 148 142 135 125 125 128 122 118 114 109 111 109 110 110 107 105 101 99 92 90 90 81 73 65 61 57 56 57 55 60 84 142 140 136 120 85 44 90 135 198 217
139 147 145 137 132 129 131 129 126 120 115 115 116 114 113 112 108 105 102 96 94 92 87 77 68 64 64 63 59 60 61 67 83 124 169 200 261 316 296 262 255 223 212
150 151 146 137 134 134 133 132 127 125 120 122 118 116 114 113 110 105 98 92 85 84 84 82 80 72 66 63 63 62 63 67 72 79 73 73 276 341 338 270 249 231 222
159 157 149 144 135 137 137 136 134 127 129 127 122 120 119 115 110 106 104 98 86 73 67 68 77 81 72 67 67 63 64 65 64 70 74 63 55 73 27 33 32 225 238
164 164 155 148 143 141 139 139 137 135 133 133 128 126 123 122 117 110 102 93 87 82 73 65 58 65 79 75 64 60 56 59 62 58 61 68 67 47 49 46 62 281 258
171 169 158 152 149 150 149 148 143 149 138 143 137 135 130 125 118 116 110 107 94 88 80 75 55 47 50 60 59 55 50 47 50 53 62 62 64 56 48 61 59 3 11
174 169 162 158 154 155 156 152 151 151 150 151 147 144 139 131 125 117 106 99 106 105 94 67 43 32 35 65 38 34 33 28 31 35 43 63 69 67 65 56 49 39 32
171 171 167 166 159 159 156 156 155 155 159 160 156 157 148 142 132 111 98 72 61 58 47 31 19 19 2 359 8 350 340 332 336 353 14 26 52 71 65 67 59 36 18
173 173 171 170 169 170 169 164 161 162 165 162 164 161 154 146 136 121 88 60 59 54 44 36 30 41 34 16 5 349 321 317 313 315 320 338 356 15 31 43 40 25 1
178 170 173 173 176 176 174 171 168 169 170 173 175 170 161 147 136 129 35 28 42 63 56 46 42 40 35 27 16 357 334 317 312 300 303 305 315 337 357 3 3 2 357
177 171 173 175 177 180 179 176 175 176 180 182 179 175 171 154 147 99 24 23 26 48 48 31 42 43 19 12 12 10 359 338 301 278 286 295 307 311 321 334 349 355 344
177 167 168 170 173 183 188 186 182 188 191 188 183 179 179 164 149 79 26 24 29 28 34 11 15 5 26 13 24 31 21 2 339 296 271 275 291 303 312 322 329 326 324
175 172 171 176 172 181 185 186 187 193 193 192 192 191 183 167 150 62 30 28 27 11 32 358 8 8 17 28 36 31 10 2 3 337 286 278 296 308 308 307 316 320 318
177 173 176 177 178 178 179 181 189 206 205 202 199 193 189 184 178 33 24 23 11 353 9 360 8 9 20 20 13 6 3 9 19 25 29 300 299 305 307 309 314 322 325
187 188 182 180 178 185 191 198 206 211 214 210 206 208 206 209 234 343 17 7 340 329 355 7 353 16 21 18 5 19 30 41 51 53 61 60 313 311 301 301 308 317 317
188 191 190 189 184 185 192 205 211 210 205 200 208 216 217 219 234 258 325 343 329 323 327 351 11 20 20 17 23 26 31 40 50 56 57 52 44 25 11 4 11 5 353
189 193 192 194 196 195 202 207 214 221 213 211 217 224 228 235 247 261 279 304 306 316 294 316 3 12 9 18 19 14 12 24 36 37 35 32 24 22 26 38 30 9 359